Tiempo atmosférico en la estación meteorológica de Madrid, Ciudad Universitaria, Madrid (664 m.)



Fecha
DESCASC
Temp. máxima en grados centígrados (hora)
DESCASC
Temp. mínima en grados centígrados (hora)
DESCASC
Temp. media en grados centígrados
DESCASC
Racha de viento máxima en m/sg (hora)
DESCASC
Velocidad máxima media en intervalos de 10 minutos(hora)
DESCASC
Precipitaciones diarias en mm
DESCASC
Precipitaciones de 00:00 a 06:00 en mm
DESCASC
Precipitaciones de 06:00 a 12:00 en mm
DESCASC
Precipitaciones de 12:00 a 18:00 en mm
DESCASC
Precipitaciones de 18:00 a 24:00 en mm
DESCASC
29-10-2020 -- (--) -- (--) -- -- (--) -- (--) 0 0 0 0 0
28-10-2020 -- (--) -- (--) -- -- (--) -- (--) 0 0 0 0 0
27-10-2020 -- (--) -- (--) -- -- (--) -- (--) 0 0 0 0 0
26-10-2020 -- (--) -- (--) -- -- (--) -- (--) 0.1 0.1 0 0 0
25-10-2020 -- (--) -- (--) -- -- (--) -- (--) 7.2 0 0 1.1 6.1
24-10-2020 -- (--) -- (--) -- -- (--) -- (--) 0.2 0.1 0.1 0 0
23-10-2020 -- (--) -- (--) -- -- (--) -- (--) 5.8 3 0.1 2.1 0.6
22-10-2020 -- (--) -- (--) -- -- (--) -- (--) 12.7 2.9 0.3 0 9.5
21-10-2020 -- (--) -- (--) -- -- (--) -- (--) 4.4 2.1 2.2 0.1 0
20-10-2020 -- (--) -- (--) -- -- (--) -- (--) 21.4 0 15.8 2.3 3.3
19-10-2020 -- (--) -- (--) -- -- (--) -- (--) 0 0 0 0 0
18-10-2020 -- (--) -- (--) -- -- (--) -- (--) 0 0 0 0 0
17-10-2020 -- (--) -- (--) -- -- (--) -- (--) 0 0 0 0 0
16-10-2020 -- (--) -- (--) -- -- (--) -- (--) 0 0 0 0 0
15-10-2020 -- (--) -- (--) -- -- (--) -- (--) 0 0 0 0 0
14-10-2020 -- (--) -- (--) -- -- (--) -- (--) 0 0 0 0 0
13-10-2020 -- (--) -- (--) -- -- (--) -- (--) 0 0 0 0 0
12-10-2020 -- (--) -- (--) -- -- (--) -- (--) 0 0 0 0 0
11-10-2020 -- (--) -- (--) -- -- (--) -- (--) 0 0 0 0 0
10-10-2020 -- (--) -- (--) -- -- (--) -- (--) 0 0 0 0 0
09-10-2020 -- (--) -- (--) -- -- (--) -- (--) 0 0 0 0 0

Gráficas

Temp. máximas Temp. mínimas Temp. medias Precipitaciones Rachas de viento máximas Velocidades máximas media en intervalos de 10 minutos

Datos horarios

Fecha y hora oficial Temperatura (ºC) Velocidad del viento (km/h) Dirección del viento Racha (km/h) Dirección de racha Precipitación (mm) Presión (hPa) Tendencia (hPa) Humedad (%)
2020-10-30 23:00:00 9.9 0 Calma 4 Norte 0 -- -- 92
2020-10-30 22:00:00 10.6 3 Norte 5 Este 0 -- -- 91
2020-10-30 21:00:00 11.7 0 Calma 5 Norte 0 -- -- 87
2020-10-30 20:00:00 12.4 4 Este 7 Este 0 -- -- 85
2020-10-30 19:00:00 13.4 0 Calma 3 Sudeste 0 -- -- 81
2020-10-30 18:00:00 16.9 0 Calma 6 Sudoeste 0 -- -- 68
2020-10-30 17:00:00 20 2 Este 10 Sudoeste 0 -- -- 52
2020-10-30 16:00:00 20.7 2 Oeste 10 Oeste 0 -- -- 54
2020-10-30 15:00:00 20.2 4 Sudoeste 13 Oeste 0 -- -- 52
2020-10-30 14:00:00 19.8 4 Sudoeste 13 Sudoeste 0 -- -- 55
2020-10-30 13:00:00 18.4 3 Sudoeste 10 Oeste 0 -- -- 57
2020-10-30 12:00:00 16.6 0 Calma 9 Este 0 -- -- 60
2020-10-30 11:00:00 -- 3 Este 10 Norte 0 -- -- --
2020-10-30 10:00:00 -- 3 Sudoeste 5 Oeste 0 -- -- --
2020-10-30 09:00:00 -- 0 Calma 5 Norte 0 -- -- --
2020-10-30 08:00:00 -- 3 Norte 7 Norte 0 -- -- --
2020-10-30 07:00:00 -- 5 Norte 40 Norte 0 -- -- --
2020-10-30 06:00:00 -- 2 Norte 49 Norte 0 -- -- --
2020-10-30 05:00:00 -- 3 Norte 12 Norte 0 -- -- --
2020-10-30 04:00:00 -- 3 Norte 46 Noroeste 0 -- -- --
2020-10-30 03:00:00 -- 2 Noroeste 39 Noroeste 0 -- -- --
2020-10-30 02:00:00 -- 0 Calma 21 Norte 0 -- -- --
2020-10-30 01:00:00 -- 2 Noroeste 5 Noroeste 0 -- -- --
2020-10-30 00:00:00 -- 0 Calma 4 Norte 0 -- -- --
2020-10-29 23:00:00 -- 0 Calma 5 Noroeste 0 -- -- --
2020-10-29 22:00:00 -- 0 Calma 3 Este 0 -- -- --
2020-10-29 21:00:00 -- 4 Noroeste 5 Noroeste 0 -- -- --
2020-10-29 20:00:00 -- 0 Calma 4 Nordeste 0 -- -- --
2020-10-29 19:00:00 -- 3 Nordeste 4 Este 0 -- -- --
2020-10-29 18:00:00 -- 2 Oeste 7 Sudoeste 0 -- -- --
2020-10-29 17:00:00 -- 4 Oeste 11 Oeste 0 -- -- --
2020-10-29 16:00:00 -- 3 Este 63 Norte 0 -- -- --
2020-10-29 15:00:00 -- 5 Nordeste -- -- 0 -- -- --
2020-10-29 14:00:00 -- 0 Calma 18 Norte 0 -- -- --
2020-10-29 13:00:00 -- 0 Calma 10 Noroeste 0.5 -- -- --
2020-10-29 12:00:00 -- 0 Calma -- -- 0 -- -- --
2020-10-29 11:00:00 -- 0 Calma 8 Nordeste 0 -- -- --
2020-10-29 10:00:00 -- 0 Calma 13 Nordeste 0 -- -- --
2020-10-29 09:00:00 -- 3 Nordeste 9 Este 0 -- -- --
2020-10-29 08:00:00 -- 0 Calma 13 Este 0 -- -- --
2020-10-29 07:00:00 -- 2 Nordeste 16 Este 0 -- -- --
2020-10-29 06:00:00 -- 11 Este 19 Este 0 -- -- --
2020-10-29 05:00:00 -- 8 Este 18 Nordeste 0 -- -- --
2020-10-29 04:00:00 -- 6 Este 15 Este 0 -- -- --
2020-10-29 03:00:00 -- 8 Este 13 Este 0 -- -- --
2020-10-29 02:00:00 -- 8 Este 12 Este 0 -- -- --
2020-10-29 01:00:00 -- 0 Calma 9 Este 0 -- -- --
2020-10-29 00:00:00 -- 0 Calma -- -- 0 -- -- --
2020-10-28 23:00:00 -- 0 Calma -- -- 0 -- -- --
2020-10-28 22:00:00 -- 0 Calma -- -- 0 -- -- --
2020-10-28 21:00:00 -- 0 Calma -- -- 0 -- -- --
2020-10-28 20:00:00 -- 0 Calma -- -- 0 -- -- --
2020-10-28 19:00:00 -- 0 Calma 8 Este 0 -- -- --
2020-10-28 18:00:00 -- 3 Nordeste 10 Este 0 -- -- --
2020-10-28 17:00:00 -- 0 Calma 10 Nordeste 0 -- -- --
2020-10-28 16:00:00 -- 0 Calma 7 Sudeste 0 -- -- --
2020-10-28 15:00:00 -- 0 Calma -- -- 0 -- -- --
2020-10-28 14:00:00 -- 0 Calma -- -- 0 -- -- --
2020-10-28 13:00:00 -- 0 Calma -- -- 0 -- -- --
2020-10-28 12:00:00 -- 0 Calma -- -- 0 -- -- --
2020-10-28 11:00:00 -- 0 Calma -- -- 0 -- -- --
2020-10-28 10:00:00 -- 0 Calma -- -- 0 -- -- --
2020-10-28 09:00:00 -- 0 Calma -- -- 0 -- -- --
2020-10-28 08:00:00 -- 0 Calma -- -- 0 -- -- --
2020-10-28 07:00:00 -- 0 Calma -- -- 0 -- -- --
2020-10-28 06:00:00 -- 0 Calma -- -- 0 -- -- --
2020-10-28 05:00:00 -- 0 Calma -- -- 0 -- -- --
2020-10-28 04:00:00 -- 0 Calma -- -- 0 -- -- --
2020-10-28 03:00:00 -- 0 Calma -- -- 0 -- -- --
2020-10-28 02:00:00 -- 0 Calma -- -- 0 -- -- --
2020-10-28 01:00:00 -- 0 Calma -- -- 0 -- -- --
2020-10-28 00:00:00 -- 0 Calma 4 Sudeste 0 -- -- --
2020-10-27 23:00:00 -- 0 Calma 7 Sur 0 -- -- --
2020-10-27 22:00:00 -- 0 Calma 11 Sudoeste 0 -- -- --
2020-10-27 21:00:00 -- 0 Calma 12 Sudoeste 0 -- -- --
2020-10-27 20:00:00 -- 3 Sudoeste 17 Sudoeste 0 -- -- --
2020-10-27 19:00:00 -- 5 Sudoeste 15 Sudoeste 0 -- -- --
2020-10-27 18:00:00 -- 6 Sudoeste 22 Sudoeste 0 -- -- --
2020-10-27 17:00:00 -- 8 Sudoeste 25 Sudoeste 0 -- -- --
2020-10-27 16:00:00 -- 7 Sudoeste 24 Sudoeste 0 -- -- --
2020-10-27 15:00:00 -- 6 Sudoeste 23 Sudoeste 0 -- -- --
2020-10-27 14:00:00 -- 10 Oeste 21 Sudoeste 0 -- -- --
2020-10-27 13:00:00 -- 3 Sur 26 Sur 0 -- -- --
2020-10-27 12:00:00 -- 10 Oeste 23 Oeste 0 -- -- --
2020-10-27 11:00:00 -- 7 Sudoeste 25 Oeste 0 -- -- --
2020-10-27 10:00:00 -- 0 Calma 9 Oeste 0 -- -- --
2020-10-27 09:00:00 -- 0 Calma 8 Sudoeste 0 -- -- --
2020-10-27 08:00:00 -- 0 Calma 9 Oeste 0 -- -- --
2020-10-27 07:00:00 -- 0 Calma 10 Oeste 0 -- -- --
2020-10-27 06:00:00 -- 0 Calma 10 Oeste 0 -- -- --
2020-10-27 05:00:00 -- 0 Calma 14 Oeste 0 -- -- --
2020-10-27 04:00:00 -- 8 Oeste 15 Oeste 0 -- -- --
2020-10-27 03:00:00 -- 0 Calma 9 Oeste 0 -- -- --
2020-10-27 02:00:00 -- 0 Calma 18 Oeste 0 -- -- --
2020-10-27 01:00:00 -- 9 Oeste 18 Oeste 0 -- -- --
2020-10-27 00:00:00 -- 12 Oeste 23 Oeste 0 -- -- --
2020-10-26 23:00:00 -- 4 Oeste 12 Oeste 0 -- -- --
2020-10-26 22:00:00 -- 3 Oeste 17 Oeste 0 -- -- --
2020-10-26 21:00:00 -- 7 Oeste 21 Oeste 0 -- -- --
2020-10-26 20:00:00 -- 17 Noroeste 26 Noroeste 0 -- -- --
2020-10-26 19:00:00 -- 9 Oeste 18 Noroeste 0 -- -- --
2020-10-26 18:00:00 -- 12 Noroeste 27 Oeste 0 -- -- --
2020-10-26 17:00:00 -- 16 Oeste 33 Noroeste 0 -- -- --
2020-10-26 16:00:00 -- 17 Oeste 35 Noroeste 0 -- -- --
2020-10-26 15:00:00 -- 15 Noroeste 35 Noroeste 0 -- -- --
2020-10-26 14:00:00 -- 17 Oeste 37 Oeste 0 -- -- --
2020-10-26 13:00:00 -- 16 Oeste 33 Oeste 0 -- -- --
2020-10-26 12:00:00 -- 19 Noroeste 31 Oeste 0 -- -- --
2020-10-26 11:00:00 -- 17 Noroeste 37 Oeste 0 -- -- --
2020-10-26 10:00:00 -- 14 Noroeste 37 Noroeste 0 -- -- --
2020-10-26 09:00:00 -- 10 Noroeste 35 Oeste 0 -- -- --
2020-10-26 08:00:00 -- 19 Noroeste 40 Noroeste 0 -- -- --
2020-10-26 07:00:00 -- 6 Oeste 21 Oeste 0 -- -- --
2020-10-26 06:00:00 -- 11 Oeste 20 Oeste 0 -- -- --
2020-10-26 05:00:00 -- 3 Oeste 21 Oeste 0 -- -- --
2020-10-26 04:00:00 -- 9 Oeste 17 Oeste 0 -- -- --
2020-10-26 03:00:00 -- 7 Oeste 18 Noroeste 0 -- -- --
2020-10-26 02:00:00 -- 0 Calma 22 Noroeste 0.1 -- -- --
2020-10-26 01:00:00 -- 10 Noroeste 26 Oeste 0 -- -- --
2020-10-26 00:00:00 -- 5 Oeste 22 Noroeste 0.1 -- -- --
2020-10-25 23:00:00 -- 7 Noroeste 19 Oeste 0.5 -- -- --
2020-10-25 22:00:00 -- 11 Noroeste 32 Noroeste 0.4 -- -- --
2020-10-25 21:00:00 -- 12 Oeste 30 Oeste 3 -- -- --
2020-10-25 20:00:00 -- 16 Sudoeste 46 Oeste 1.6 -- -- --
2020-10-25 19:00:00 -- 20 Sudoeste 52 Sudoeste 0.5 -- -- --
2020-10-25 18:00:00 -- 6 Sur 29 Sur 0.8 -- -- --
2020-10-25 17:00:00 -- 3 Sur 27 Sudoeste 0.3 -- -- --
2020-10-25 16:00:00 -- 6 Sur 30 Sur 0 -- -- --
2020-10-25 15:00:00 -- 10 Sudoeste 44 Sudoeste 0 -- -- --
2020-10-25 14:00:00 -- 12 Sudoeste 37 Sudoeste 0 -- -- --
2020-10-25 13:00:00 -- 6 Sudoeste 32 Sudoeste 0 -- -- --
2020-10-25 12:00:00 -- 5 Sur 26 Sudoeste 0 -- -- --
2020-10-25 11:00:00 -- 8 Sudoeste 31 Sudoeste 0 -- -- --
2020-10-25 10:00:00 -- 9 Sudoeste 24 Sudoeste 0 -- -- --
2020-10-25 09:00:00 -- 3 Sur 18 Sur 0 -- -- --
2020-10-25 08:00:00 -- 3 Sur 22 Sur 0 -- -- --
2020-10-25 07:00:00 -- 4 Sur 19 Sur 0 -- -- --
2020-10-25 06:00:00 -- 2 Sur 15 Sur 0 -- -- --
2020-10-25 05:00:00 -- 0 Calma 11 Sudoeste 0 -- -- --
2020-10-25 04:00:00 -- 0 Calma 15 Sur 0 -- -- --
2020-10-25 03:00:00 -- 0 Calma 13 Sur 0 -- -- --
2020-10-25 02:00:00 -- 0 Calma 15 Sudoeste 0 -- -- --
2020-10-25 01:00:00 -- 0 Calma 17 Sudoeste 0 -- -- --
2020-10-25 00:00:00 -- 0 Calma 12 Sudoeste 0 -- -- --
2020-10-24 23:00:00 -- 0 Calma 10 Sudoeste 0 -- -- --
2020-10-24 22:00:00 -- 0 Calma 8 Sur 0 -- -- --
2020-10-24 21:00:00 -- 0 Calma 9 Sudoeste 0 -- -- --
2020-10-24 20:00:00 -- 0 Calma 14 Sudoeste 0 -- -- --
2020-10-24 19:00:00 -- 0 Calma 18 Sudoeste 0 -- -- --
2020-10-24 18:00:00 -- 6 Sudoeste 22 Sudoeste 0 -- -- --
2020-10-24 17:00:00 -- 4 Sudoeste 18 Sur 0 -- -- --
2020-10-24 16:00:00 -- 2 Oeste 20 Oeste 0 -- -- --
2020-10-24 15:00:00 -- 0 Calma -- -- 0 -- -- --
2020-10-24 14:00:00 -- 0 Calma -- -- 0 -- -- --
2020-10-24 13:00:00 -- 0 Calma -- -- 0 -- -- --
2020-10-24 12:00:00 -- 0 Calma -- -- 0 -- -- --
2020-10-24 11:00:00 -- 0 Calma -- -- 0 -- -- --
2020-10-24 10:00:00 -- 0 Calma -- -- 0.1 -- -- --
2020-10-24 09:00:00 -- 0 Calma -- -- 0 -- -- --
2020-10-24 08:00:00 -- 0 Calma -- -- 0 -- -- --
2020-10-24 07:00:00 -- 0 Calma -- -- 0 -- -- --
2020-10-24 06:00:00 -- 0 Calma -- -- 0 -- -- --
2020-10-24 05:00:00 -- 0 Calma -- -- 0 -- -- --
2020-10-24 04:00:00 -- 0 Calma -- -- 0.1 -- -- --
2020-10-24 03:00:00 -- 0 Calma -- -- 0 -- -- --
2020-10-24 02:00:00 -- 0 Calma -- -- 0 -- -- --
2020-10-24 01:00:00 -- 0 Calma -- -- 0 -- -- --
2020-10-24 00:00:00 -- 0 Calma -- -- 0 -- -- --
2020-10-23 23:00:00 -- 0 Calma -- -- 0 -- -- --
2020-10-23 22:00:00 -- 0 Calma -- -- 0 -- -- --
2020-10-23 21:00:00 -- 0 Calma -- -- 0 -- -- --
2020-10-23 20:00:00 -- 0 Calma -- -- 0.2 -- -- --
2020-10-23 19:00:00 -- 0 Calma 9 Sudoeste 0.4 -- -- --
2020-10-23 18:00:00 -- 0 Calma 12 Sudoeste 0 -- -- --
2020-10-23 17:00:00 -- 0 Calma 14 Norte 1.7 -- -- --
2020-10-23 16:00:00 -- 3 Nordeste 26 Oeste 0.4 -- -- --
2020-10-23 15:00:00 -- 6 Sudoeste 24 Oeste 0 -- -- --
2020-10-23 14:00:00 -- 12 Oeste 23 Oeste 0 -- -- --
2020-10-23 13:00:00 -- 8 Oeste 21 Sudoeste 0 -- -- --
2020-10-23 12:00:00 -- 3 Sudoeste 16 Sudoeste 0 -- -- --
2020-10-23 11:00:00 -- 0 Calma 11 Sudoeste 0 -- -- --
2020-10-23 10:00:00 -- 0 Calma 5 Sudoeste 0 -- -- --
2020-10-23 09:00:00 -- 0 Calma 9 Sudoeste 0 -- -- --
2020-10-23 08:00:00 -- 0 Calma 9 Sudoeste 0.1 -- -- --
2020-10-23 07:00:00 -- 0 Calma 8 Sudoeste 0 -- -- --
2020-10-23 06:00:00 -- 0 Calma 11 Sudoeste 0 -- -- --
2020-10-23 05:00:00 -- 0 Calma 12 Oeste 0 -- -- --
2020-10-23 04:00:00 -- 0 Calma 11 Sur 0 -- -- --
2020-10-23 03:00:00 -- 0 Calma 21 Sudoeste 0.8 -- -- --
2020-10-23 02:00:00 -- 9 Sudoeste 23 Oeste 1.4 -- -- --
2020-10-23 01:00:00 -- 0 Calma -- -- 0.8 -- -- --
2020-10-23 00:00:00 -- 0 Calma 7 Oeste 0.1 -- -- --
2020-10-22 23:00:00 -- 0 Calma 18 Oeste 3.2 -- -- --
2020-10-22 22:00:00 -- 0 Calma 12 Oeste 3 -- -- --
2020-10-22 21:00:00 -- 0 Calma 22 Oeste 2.4 -- -- --
2020-10-22 20:00:00 -- 0 Calma 24 Sur 0.8 -- -- --
2020-10-22 19:00:00 -- 9 Sur 25 Sudeste 0 -- -- --
2020-10-22 18:00:00 -- 5 Sur 24 Sudeste 0 -- -- --
2020-10-22 17:00:00 -- 3 Sur 17 Sur 0 -- -- --
2020-10-22 16:00:00 -- 4 Sur 16 Sur 0 -- -- --
2020-10-22 15:00:00 -- 5 Sur 17 Sur 0 -- -- --
2020-10-22 14:00:00 -- 4 Sur 18 Sur 0 -- -- --
2020-10-22 13:00:00 -- 5 Sur 17 Sur 0 -- -- --
2020-10-22 12:00:00 -- 3 Sur 13 Sudeste 0 -- -- --
2020-10-22 11:00:00 -- 2 Sur 21 Sudeste 0.1 -- -- --
2020-10-22 10:00:00 -- 5 Sudeste 18 Sur 0 -- -- --
2020-10-22 09:00:00 -- 4 Sudeste 13 Este 0 -- -- --
2020-10-22 08:00:00 -- 0 Calma 9 Sudeste 0 -- -- --
2020-10-22 07:00:00 -- 0 Calma 13 Sur 0.2 -- -- --
2020-10-22 06:00:00 -- 0 Calma 11 Sur 0 -- -- --
2020-10-22 05:00:00 -- 0 Calma 7 Sur 0 -- -- --
2020-10-22 04:00:00 -- 0 Calma 9 Sudeste 1.6 -- -- --
2020-10-22 03:00:00 -- 0 Calma 11 Sur 1.3 -- -- --
2020-10-22 02:00:00 -- 4 Sur 14 Sur 0 -- -- --
2020-10-22 01:00:00 -- 2 Sur 14 Sur 0 -- -- --
2020-10-22 00:00:00 -- 5 Sur 19 Sur 0 -- -- --
2020-10-21 23:00:00 -- 6 Sur 20 Sur 0 -- -- --
2020-10-21 22:00:00 -- 7 Sur 21 Sudeste 0 -- -- --
2020-10-21 21:00:00 -- 4 Sudeste 18 Sudeste 0 -- -- --
2020-10-21 20:00:00 -- 5 Sudeste 15 Sur 0 -- -- --
2020-10-21 19:00:00 -- 4 Sur 16 Sur 0 -- -- --
2020-10-21 18:00:00 -- 0 Calma 18 Sudoeste 0 -- -- --
2020-10-21 17:00:00 -- 5 Sudoeste 24 Sudoeste 0 -- -- --
2020-10-21 16:00:00 -- 5 Sudoeste 23 Sudoeste 0 -- -- --
2020-10-21 15:00:00 -- 6 Sudoeste 25 Sudoeste 0 -- -- --
2020-10-21 14:00:00 -- 3 Sur 22 Sudoeste 0.1 -- -- --
2020-10-21 13:00:00 -- 5 Sur 22 Sudeste 0 -- -- --
2020-10-21 12:00:00 -- 2 Sur 20 Sudeste 2.2 -- -- --
2020-10-21 11:00:00 -- 5 Sur 20 Sur 0 -- -- --
2020-10-21 10:00:00 -- 4 Sur 19 Sur 0 -- -- --
2020-10-21 09:00:00 -- 4 Sur 20 Sur 0 -- -- --
2020-10-21 08:00:00 -- 4 Sur 17 Sudeste 0 -- -- --
2020-10-21 07:00:00 -- 5 Sur 17 Sudeste 0 -- -- --
2020-10-21 06:00:00 -- 2 Sur 20 Sur 0 -- -- --
2020-10-21 05:00:00 -- 3 Sur 23 Sudoeste 0 -- -- --
2020-10-21 04:00:00 -- 5 Sur 24 Sur 0 -- -- --
2020-10-21 03:00:00 -- 2 Sur 22 Sur 0 -- -- --
2020-10-21 02:00:00 -- 4 Sur 36 Sudoeste 0.9 -- -- --
2020-10-21 01:00:00 -- 10 Sur 62 Sudeste 1.2 -- -- --
2020-10-21 00:00:00 -- 11 Sur 41 Sur 0 -- -- --
2020-10-20 23:00:00 -- 12 Sur 40 Sur 0.4 -- -- --
2020-10-20 22:00:00 -- 8 Sur 33 Sudeste 0.4 -- -- --
2020-10-20 21:00:00 -- 4 Sur 21 Sur 0.9 -- -- --
2020-10-20 20:00:00 -- 5 Norte 25 Sudoeste 0.9 -- -- --
2020-10-20 19:00:00 -- 4 Sur 16 Sur 0.7 -- -- --
2020-10-20 18:00:00 -- 4 Norte 14 Noroeste 0.8 -- -- --
2020-10-20 17:00:00 -- 0 Calma -- -- 0 -- -- --
2020-10-20 16:00:00 -- 0 Calma 6 Nordeste 0 -- -- --
2020-10-20 15:00:00 -- 4 Nordeste 13 Nordeste 0.1 -- -- --
2020-10-20 14:00:00 -- 5 Nordeste 16 Nordeste 0.2 -- -- --
2020-10-20 13:00:00 -- 2 Nordeste 24 Este 1.2 -- -- --
2020-10-20 12:00:00 -- 8 Este 17 Este 3.8 -- -- --
2020-10-20 11:00:00 -- 3 Nordeste 14 Este 3.4 -- -- --
2020-10-20 10:00:00 -- 6 Este 14 Este 5.3 -- -- --
2020-10-20 09:00:00 -- 4 Este 10 Este 2.1 -- -- --
2020-10-20 08:00:00 -- 0 Calma 8 Este 0.6 -- -- --
2020-10-20 07:00:00 -- 3 Norte 28 Sur 0.6 -- -- --
2020-10-20 06:00:00 -- 4 Sur 28 Sudoeste 0 -- -- --
2020-10-20 05:00:00 -- 5 Sur 17 Sur 0 -- -- --
2020-10-20 04:00:00 -- 5 Sur 20 Sudeste 0 -- -- --
2020-10-20 03:00:00 -- 6 Sur 25 Sur 0 -- -- --
2020-10-20 02:00:00 -- 9 Sudeste 23 Sur 0 -- -- --
2020-10-20 01:00:00 -- 8 Sudeste 26 Este 0 -- -- --
2020-10-20 00:00:00 -- 8 Sudeste 25 Sur 0 -- -- --
2020-10-19 23:00:00 -- 7 Sur 23 Sudeste 0 -- -- --
2020-10-19 22:00:00 -- 8 Sudeste 22 Sur 0 -- -- --
2020-10-19 21:00:00 -- 6 Sur 17 Sur 0 -- -- --
2020-10-19 20:00:00 -- 8 Este 14 Este 0 -- -- --
2020-10-19 19:00:00 -- 4 Este 12 Nordeste 0 -- -- --
2020-10-19 18:00:00 -- 0 Calma 9 Este 0 -- -- --
2020-10-19 17:00:00 -- 4 Nordeste 16 Este 0 -- -- --
2020-10-19 16:00:00 -- 3 Sudeste 13 Sudeste 0 -- -- --
2020-10-19 15:00:00 -- 0 Calma 12 Nordeste 0 -- -- --
2020-10-19 14:00:00 -- 0 Calma 10 Este 0 -- -- --
2020-10-19 13:00:00 -- 6 Este 14 Sudeste 0 -- -- --
2020-10-19 12:00:00 -- 3 Sudeste 14 Sudeste 0 -- -- --
2020-10-19 11:00:00 -- 5 Este 15 Este 0 -- -- --
2020-10-19 10:00:00 -- 7 Este 13 Nordeste 0 -- -- --
2020-10-19 09:00:00 -- 6 Este 12 Este 0 -- -- --
2020-10-19 08:00:00 -- 3 Nordeste 12 Nordeste 0 -- -- --
2020-10-19 07:00:00 -- 0 Calma 9 Este 0 -- -- --
2020-10-19 06:00:00 -- 4 Nordeste 10 Este 0 -- -- --
2020-10-19 05:00:00 -- 0 Calma 9 Este 0 -- -- --
2020-10-19 04:00:00 -- 3 Este 10 Este 0 -- -- --
2020-10-19 03:00:00 -- 6 Este 10 Este 0 -- -- --
2020-10-19 02:00:00 -- 0 Calma -- -- 0 -- -- --
2020-10-19 01:00:00 -- 0 Calma -- -- 0 -- -- --
2020-10-19 00:00:00 -- 0 Calma 9 Nordeste 0 -- -- --
2020-10-18 23:00:00 -- 0 Calma 5 Nordeste 0 -- -- --
2020-10-18 22:00:00 -- 5 Nordeste 9 Nordeste 0 -- -- --
2020-10-18 21:00:00 -- 6 Nordeste 8 Nordeste 0 -- -- --
2020-10-18 20:00:00 -- 3 Nordeste 6 Nordeste 0 -- -- --
2020-10-18 19:00:00 -- 0 Calma -- -- 0 -- -- --
2020-10-18 18:00:00 -- 0 Calma 10 Sudeste 0 -- -- --
2020-10-18 17:00:00 -- 0 Calma 10 Nordeste 0 -- -- --
2020-10-18 16:00:00 -- 0 Calma 10 Este 0 -- -- --
2020-10-18 15:00:00 -- 0 Calma 9 Sudeste 0 -- -- --
2020-10-18 14:00:00 -- 0 Calma 9 Sudeste 0 -- -- --
2020-10-18 13:00:00 -- 0 Calma 9 Este 0 -- -- --
2020-10-18 12:00:00 -- 0 Calma 8 Este 0 -- -- --
2020-10-18 11:00:00 -- 0 Calma -- -- 0 -- -- --
2020-10-18 10:00:00 -- 0 Calma -- -- 0 -- -- --
2020-10-18 09:00:00 -- 0 Calma -- -- 0 -- -- --
2020-10-18 08:00:00 -- 0 Calma 6 Norte 0 -- -- --
2020-10-18 07:00:00 -- 0 Calma 5 Norte 0 -- -- --
2020-10-18 06:00:00 -- 0 Calma -- -- 0 -- -- --
2020-10-18 05:00:00 -- 0 Calma -- -- 0 -- -- --
2020-10-18 04:00:00 -- 0 Calma -- -- 0 -- -- --
2020-10-18 03:00:00 -- 0 Calma -- -- 0 -- -- --
2020-10-18 02:00:00 -- 0 Calma -- -- 0 -- -- --
2020-10-18 01:00:00 -- 0 Calma -- -- 0 -- -- --
2020-10-18 00:00:00 -- 0 Calma -- -- 0 -- -- --
2020-10-17 23:00:00 -- 0 Calma -- -- 0 -- -- --
2020-10-17 22:00:00 -- 0 Calma -- -- 0 -- -- --
2020-10-17 21:00:00 -- 0 Calma 5 Sur 0 -- -- --
2020-10-17 20:00:00 -- 0 Calma 4 Sur 0 -- -- --
2020-10-17 19:00:00 -- 0 Calma 13 Sudoeste 0 -- -- --
2020-10-17 18:00:00 -- 0 Calma 15 Oeste 0 -- -- --
2020-10-17 17:00:00 -- 0 Calma 14 Sudoeste 0 -- -- --
2020-10-17 16:00:00 -- 3 Sudoeste 13 Sudoeste 0 -- -- --
2020-10-17 15:00:00 -- 0 Calma 12 Oeste 0 -- -- --
2020-10-17 14:00:00 -- 0 Calma 13 Sudoeste 0 -- -- --
2020-10-17 13:00:00 -- 0 Calma 8 Sur 0 -- -- --
2020-10-17 12:00:00 -- 0 Calma -- -- 0 -- -- --
2020-10-17 11:00:00 -- 0 Calma -- -- 0 -- -- --
2020-10-17 10:00:00 -- 0 Calma -- -- 0 -- -- --
2020-10-17 09:00:00 -- 0 Calma -- -- 0 -- -- --
2020-10-17 08:00:00 -- 0 Calma -- -- 0 -- -- --
2020-10-17 07:00:00 -- 0 Calma -- -- 0 -- -- --
2020-10-17 06:00:00 -- 0 Calma 7 Nordeste 0 -- -- --
2020-10-17 05:00:00 -- 4 Nordeste 8 Este 0 -- -- --
2020-10-17 04:00:00 -- 0 Calma -- -- 0 -- -- --
2020-10-17 03:00:00 -- 0 Calma -- -- 0 -- -- --
2020-10-17 02:00:00 -- 0 Calma 8 Nordeste 0 -- -- --
2020-10-17 01:00:00 -- 0 Calma -- -- 0 -- -- --
2020-10-17 00:00:00 -- 0 Calma 4 Sudoeste 0 -- -- --
2020-10-16 23:00:00 -- 0 Calma 6 Sur 0 -- -- --
2020-10-16 22:00:00 -- 0 Calma 8 Sur 0 -- -- --
2020-10-16 21:00:00 -- 0 Calma 10 Sur 0 -- -- --
2020-10-16 20:00:00 -- 0 Calma 14 Sudoeste 0 -- -- --
2020-10-16 19:00:00 -- 2 Sudoeste 12 Sudoeste 0 -- -- --
2020-10-16 18:00:00 -- 0 Calma 16 Sudoeste 0 -- -- --
2020-10-16 17:00:00 -- 4 Sudoeste 16 Oeste 0 -- -- --
2020-10-16 16:00:00 -- 4 Sudoeste 22 Oeste 0 -- -- --
2020-10-16 15:00:00 -- 3 Sudoeste 22 Sudoeste 0 -- -- --
2020-10-16 14:00:00 -- 0 Calma 17 Sudoeste 0 -- -- --
2020-10-16 13:00:00 -- 0 Calma 12 Sudoeste 0 -- -- --
2020-10-16 12:00:00 -- 0 Calma 12 Noroeste 0 -- -- --
2020-10-16 11:00:00 -- 0 Calma 0 Calma 0 -- -- --
2020-10-16 10:00:00 -- 0 Calma 8 Nordeste 0 -- -- --
2020-10-16 09:00:00 -- 0 Calma 8 Este 0 -- -- --
2020-10-16 08:00:00 -- 0 Calma -- -- 0 -- -- --
2020-10-16 07:00:00 -- 0 Calma -- -- 0 -- -- --
2020-10-16 06:00:00 -- 0 Calma -- -- 0 -- -- --
2020-10-16 05:00:00 -- 0 Calma 17 Este 0 -- -- --
2020-10-16 04:00:00 -- 9 Nordeste 15 Nordeste 0 -- -- --
2020-10-16 03:00:00 -- 4 Nordeste 14 Nordeste 0 -- -- --
2020-10-16 02:00:00 -- 0 Calma 23 Este 0 -- -- --
2020-10-16 01:00:00 -- 7 Nordeste 20 Nordeste 0 -- -- --
2020-10-16 00:00:00 -- 5 Este 29 Este 0 -- -- --
2020-10-15 23:00:00 -- 12 Nordeste 22 Nordeste 0 -- -- --
2020-10-15 22:00:00 -- 7 Nordeste 22 Nordeste 0 -- -- --
2020-10-15 21:00:00 -- 10 Nordeste 19 Norte 0 -- -- --
2020-10-15 20:00:00 -- 9 Nordeste 19 Nordeste 0 -- -- --
2020-10-15 19:00:00 -- 6 Nordeste 18 Noroeste 0 -- -- --
2020-10-15 18:00:00 -- 2 Norte 18 Nordeste 0 -- -- --
2020-10-15 17:00:00 -- 6 Nordeste 22 Este 0 -- -- --
2020-10-15 16:00:00 -- 3 Nordeste 22 Oeste 0 -- -- --
2020-10-15 15:00:00 -- 3 Oeste 15 Oeste 0 -- -- --
2020-10-15 14:00:00 -- 2 Oeste 15 Oeste 0 -- -- --
2020-10-15 13:00:00 -- 0 Calma 14 Sudoeste 0 -- -- --
2020-10-15 12:00:00 -- 0 Calma 15 Sudoeste 0 -- -- --
2020-10-15 11:00:00 -- 0 Calma 6 Oeste 0 -- -- --
2020-10-15 10:00:00 -- 0 Calma 5 Sudoeste 0 -- -- --
2020-10-15 09:00:00 -- 0 Calma -- -- 0 -- -- --
2020-10-15 08:00:00 -- 0 Calma -- -- 0 -- -- --
2020-10-15 07:00:00 -- 0 Calma -- -- 0 -- -- --
2020-10-15 06:00:00 -- 0 Calma -- -- 0 -- -- --
2020-10-15 05:00:00 -- 0 Calma -- -- 0 -- -- --
2020-10-15 04:00:00 -- 0 Calma -- -- 0 -- -- --